Time,TemperatureF,DewpointF,PressureIn,WindDirection,WindDirectionDegrees,WindSpeedMPH,WindSpeedGustMPH,Humidity,HourlyPrecipIn,Conditions,Clouds,dailyrainin,SoftwareType,DateUTC
2013-04-20 00:02:00,40.0,37.0,30.16,SW,221,0.0,0.0,89,0.00,,,0.02,,2013-04-20 05:02:00,
2013-04-20 00:12:00,40.0,37.0,30.16,SW,221,0.0,0.0,89,0.00,,,0.02,,2013-04-20 05:12:00,
2013-04-20 00:22:00,40.0,37.0,30.16,SW,221,0.0,0.0,90,0.00,,,0.02,,2013-04-20 05:22:00,
2013-04-20 00:32:00,40.0,37.0,30.17,SW,221,0.0,0.0,90,0.00,,,0.01,,2013-04-20 05:32:00,
2013-04-20 00:42:00,40.0,37.0,30.17,SW,221,0.0,0.0,90,0.00,,,0.01,,2013-04-20 05:42:00,
2013-04-20 00:51:00,40.0,38.0,30.17,SW,221,0.0,0.0,91,0.00,,,0.01,,2013-04-20 05:51:00,
2013-04-20 01:02:00,40.0,38.0,30.17,SW,221,0.0,0.0,92,0.00,,,0.01,,2013-04-20 06:02:00,
2013-04-20 01:12:00,40.0,38.0,30.17,SW,221,0.0,0.0,92,0.00,,,0.01,,2013-04-20 06:12:00,
2013-04-20 01:21:00,39.0,37.0,30.18,SW,221,0.0,0.0,92,0.00,,,0.00,,2013-04-20 06:21:00,
2013-04-20 01:32:00,39.0,37.0,30.18,SW,221,0.0,0.0,92,0.00,,,0.00,,2013-04-20 06:32:00,
2013-04-20 01:42:00,39.0,37.0,30.18,SW,221,0.0,0.0,92,0.00,,,0.00,,2013-04-20 06:42:00,
2013-04-20 01:52:00,39.0,37.0,30.18,SW,221,0.0,0.0,93,0.00,,,0.00,,2013-04-20 06:52:00,
2013-04-20 02:01:00,39.0,37.0,30.17,SW,221,0.0,0.0,93,0.00,,,0.00,,2013-04-20 07:01:00,
2013-04-20 02:11:00,39.0,37.0,30.17,SW,221,0.0,0.0,93,0.00,,,0.00,,2013-04-20 07:11:00,
2013-04-20 02:21:00,38.0,36.0,30.17,SW,221,0.0,0.0,93,0.00,,,0.00,,2013-04-20 07:21:00,
2013-04-20 02:32:00,38.0,36.0,30.17,SW,221,0.0,0.0,93,0.00,,,0.00,,2013-04-20 07:32:00,
2013-04-20 02:42:00,38.0,36.0,30.17,SW,221,0.0,0.0,93,0.00,,,0.00,,2013-04-20 07:42:00,
2013-04-20 02:52:00,38.0,36.0,30.17,SW,221,0.0,0.0,94,0.00,,,0.00,,2013-04-20 07:52:00,
2013-04-20 03:01:00,38.0,36.0,30.18,SW,221,0.0,0.0,94,0.00,,,0.00,,2013-04-20 08:01:00,
2013-04-20 03:11:00,38.0,36.0,30.18,SW,221,0.0,0.0,94,0.00,,,0.00,,2013-04-20 08:11:00,
2013-04-20 03:21:00,38.0,36.0,30.18,SW,221,0.0,0.0,94,0.00,,,0.00,,2013-04-20 08:21:00,
2013-04-20 03:32:00,38.0,36.0,30.18,SW,221,0.0,0.0,94,0.00,,,0.00,,2013-04-20 08:32:00,
2013-04-20 03:42:00,38.0,36.0,30.18,SW,221,0.0,0.0,94,0.00,,,0.00,,2013-04-20 08:42:00,
2013-04-20 03:52:00,37.0,35.0,30.18,SW,221,0.0,0.0,94,0.00,,,0.00,,2013-04-20 08:52:00,
2013-04-20 04:01:00,37.0,35.0,30.18,SW,221,0.0,0.0,94,0.00,,,0.00,,2013-04-20 09:01:00,
2013-04-20 04:12:00,37.0,35.0,30.18,SW,221,0.0,0.0,94,0.00,,,0.00,,2013-04-20 09:12:00,
2013-04-20 04:21:00,37.0,35.0,30.19,SW,221,0.0,0.0,94,0.00,,,0.00,,2013-04-20 09:21:00,
2013-04-20 04:33:00,37.0,35.0,30.19,SW,221,0.0,0.0,94,0.00,,,0.00,,2013-04-20 09:33:00,
2013-04-20 04:43:00,37.0,35.0,30.19,SW,221,0.0,0.0,94,0.00,,,0.00,,2013-04-20 09:43:00,
2013-04-20 04:53:00,37.0,36.0,30.19,SW,221,0.0,0.0,95,0.00,,,0.00,,2013-04-20 09:53:00,
2013-04-20 05:02:00,37.0,36.0,30.19,SW,221,0.0,0.0,95,0.00,,,0.00,,2013-04-20 10:02:00,
2013-04-20 05:13:00,37.0,36.0,30.19,SW,221,0.0,0.0,95,0.00,,,0.00,,2013-04-20 10:13:00,
2013-04-20 05:23:00,37.0,36.0,30.20,SW,221,0.0,0.0,95,0.00,,,0.00,,2013-04-20 10:23:00,
2013-04-20 05:33:00,36.0,35.0,30.20,SW,221,0.0,0.0,95,0.00,,,0.00,,2013-04-20 10:33:00,
2013-04-20 05:42:00,36.0,35.0,30.20,SW,221,0.0,0.0,95,0.00,,,0.00,,2013-04-20 10:42:00,
2013-04-20 05:53:00,36.0,35.0,30.21,SW,221,0.0,0.0,95,0.00,,,0.00,,2013-04-20 10:53:00,
2013-04-20 06:02:00,36.0,35.0,30.21,SW,221,0.0,0.0,95,0.00,,,0.00,,2013-04-20 11:02:00,
2013-04-20 06:12:00,36.0,35.0,30.21,SW,221,0.0,0.0,95,0.00,,,0.00,,2013-04-20 11:12:00,
2013-04-20 06:23:00,36.0,35.0,30.21,SW,221,0.0,0.0,95,0.00,,,0.00,,2013-04-20 11:23:00,
2013-04-20 06:32:00,36.0,35.0,30.22,SW,221,0.0,0.0,95,0.00,,,0.00,,2013-04-20 11:32:00,
2013-04-20 06:42:00,36.0,35.0,30.22,SW,221,0.0,0.0,95,0.00,,,0.00,,2013-04-20 11:42:00,
2013-04-20 06:53:00,36.0,35.0,30.22,SW,221,0.0,0.0,95,0.00,,,0.00,,2013-04-20 11:53:00,
2013-04-20 07:02:00,36.0,35.0,30.22,SW,221,0.0,0.0,95,0.00,,,0.00,,2013-04-20 12:02:00,
2013-04-20 07:11:00,36.0,35.0,30.22,SW,221,0.0,0.0,95,0.00,,,0.00,,2013-04-20 12:11:00,
2013-04-20 07:22:00,36.0,35.0,30.23,SW,221,0.0,0.0,96,0.00,,,0.00,,2013-04-20 12:22:00,
2013-04-20 07:32:00,38.0,37.0,30.23,SW,221,0.0,0.0,96,0.00,,,0.00,,2013-04-20 12:32:00,
2013-04-20 07:42:00,38.0,37.0,30.23,SW,221,0.0,0.0,96,0.00,,,0.00,,2013-04-20 12:42:00,
2013-04-20 07:52:00,39.0,38.0,30.24,SW,221,0.0,0.0,96,0.00,,,0.00,,2013-04-20 12:52:00,
2013-04-20 08:02:00,41.0,40.0,30.25,SW,221,0.0,0.0,97,0.00,,,0.00,,2013-04-20 13:02:00,
2013-04-20 08:11:00,41.0,40.0,30.25,SW,221,0.0,0.0,97,0.00,,,0.00,,2013-04-20 13:11:00,
2013-04-20 08:21:00,44.0,43.0,30.25,SW,219,0.0,0.0,97,0.00,,,0.00,,2013-04-20 13:21:00,
2013-04-20 08:32:00,45.0,44.0,30.26,SSE,161,0.0,1.0,95,0.00,,,0.00,,2013-04-20 13:32:00,
2013-04-20 08:42:00,45.0,44.0,30.26,SSE,161,0.0,1.0,95,0.00,,,0.00,,2013-04-20 13:42:00,
2013-04-20 08:52:00,47.0,45.0,30.26,SSE,160,0.0,1.0,91,0.00,,,0.00,,2013-04-20 13:52:00,
2013-04-20 09:02:00,50.0,45.0,30.26,SE,131,0.0,1.0,82,0.00,,,0.00,,2013-04-20 14:02:00,
2013-04-20 09:11:00,50.0,45.0,30.26,SE,131,0.0,1.0,82,0.00,,,0.00,,2013-04-20 14:11:00,
2013-04-20 09:21:00,52.0,45.0,30.26,SE,131,0.0,1.0,76,0.00,,,0.00,,2013-04-20 14:21:00,
2013-04-20 09:32:00,55.0,44.0,30.26,SE,124,0.0,1.0,67,0.00,,,0.00,,2013-04-20 14:32:00,
2013-04-20 09:42:00,55.0,44.0,30.26,SE,124,0.0,1.0,67,0.00,,,0.00,,2013-04-20 14:42:00,
2013-04-20 09:52:00,58.0,44.0,30.27,South,173,0.0,1.0,59,0.00,,,0.00,,2013-04-20 14:52:00,
2013-04-20 10:01:00,60.0,43.0,30.27,SW,219,0.0,1.0,53,0.00,,,0.00,,2013-04-20 15:01:00,
2013-04-20 10:11:00,60.0,43.0,30.27,SW,219,0.0,1.0,53,0.00,,,0.00,,2013-04-20 15:11:00,
2013-04-20 10:21:00,60.0,36.0,30.27,ESE,112,0.0,3.0,41,0.00,,,0.00,,2013-04-20 15:21:00,
2013-04-20 10:33:00,62.0,36.0,30.27,SE,146,0.0,2.0,38,0.00,,,0.00,,2013-04-20 15:33:00,
2013-04-20 10:43:00,62.0,36.0,30.27,SE,146,0.0,2.0,38,0.00,,,0.00,,2013-04-20 15:43:00,
2013-04-20 10:53:00,63.0,35.0,30.28,WSW,251,1.0,3.0,35,0.00,,,0.00,,2013-04-20 15:53:00,
2013-04-20 11:03:00,64.0,37.0,30.28,SE,139,0.0,2.0,37,0.00,,,0.00,,2013-04-20 16:03:00,
2013-04-20 11:12:00,64.0,37.0,30.28,SE,139,0.0,2.0,37,0.00,,,0.00,,2013-04-20 16:12:00,
2013-04-20 11:23:00,65.0,37.0,30.28,SSW,205,0.0,2.0,35,0.00,,,0.00,,2013-04-20 16:23:00,
2013-04-20 11:32:00,65.0,34.0,30.28,SSW,204,0.0,5.0,31,0.00,,,0.00,,2013-04-20 16:32:00,
2013-04-20 11:42:00,65.0,34.0,30.28,SSW,204,0.0,5.0,31,0.00,,,0.00,,2013-04-20 16:42:00,
2013-04-20 11:53:00,65.0,34.0,30.28,SW,233,1.0,4.0,31,0.00,,,0.00,,2013-04-20 16:53:00,
2013-04-20 12:02:00,65.0,37.0,30.28,SW,228,0.0,6.0,35,0.00,,,0.00,,2013-04-20 17:02:00,
2013-04-20 12:12:00,65.0,37.0,30.28,SW,228,0.0,6.0,35,0.00,,,0.00,,2013-04-20 17:12:00,
2013-04-20 12:23:00,66.0,34.0,30.28,SW,219,0.0,5.0,31,0.00,,,0.00,,2013-04-20 17:23:00,
2013-04-20 12:33:00,67.0,35.0,30.28,ESE,112,0.0,4.0,30,0.00,,,0.00,,2013-04-20 17:33:00,
2013-04-20 12:42:00,67.0,35.0,30.28,ESE,112,0.0,4.0,30,0.00,,,0.00,,2013-04-20 17:42:00,
2013-04-20 12:52:00,67.0,35.0,30.27,ESE,120,0.0,9.0,31,0.00,,,0.00,,2013-04-20 17:52:00,
2013-04-20 13:02:00,69.0,37.0,30.27,SSE,149,0.0,3.0,31,0.00,,,0.00,,2013-04-20 18:02:00,
2013-04-20 13:12:00,69.0,37.0,30.27,SSE,149,0.0,3.0,31,0.00,,,0.00,,2013-04-20 18:12:00,
2013-04-20 13:22:00,69.0,35.0,30.26,SSE,162,0.0,3.0,29,0.00,,,0.00,,2013-04-20 18:22:00,
2013-04-20 13:32:00,69.0,37.0,30.26,SSW,204,1.0,4.0,31,0.00,,,0.00,,2013-04-20 18:32:00,
2013-04-20 13:42:00,69.0,37.0,30.26,SSW,204,1.0,4.0,31,0.00,,,0.00,,2013-04-20 18:42:00,
2013-04-20 13:52:00,69.0,35.0,30.26,WSW,255,2.0,4.0,28,0.00,,,0.00,,2013-04-20 18:52:00,
2013-04-20 14:01:00,70.0,34.0,30.25,SW,224,0.0,2.0,26,0.00,,,0.00,,2013-04-20 19:01:00,
2013-04-20 14:11:00,70.0,34.0,30.25,SW,217,0.0,3.0,27,0.00,,,0.00,,2013-04-20 19:11:00,
2013-04-20 14:21:00,70.0,34.0,30.25,SW,217,0.0,3.0,27,0.00,,,0.00,,2013-04-20 19:21:00,
2013-04-20 14:32:00,70.0,35.0,30.24,SSE,156,0.0,2.0,28,0.00,,,0.00,,2013-04-20 19:32:00,
2013-04-20 14:42:00,71.0,37.0,30.24,South,181,0.0,2.0,29,0.00,,,0.00,,2013-04-20 19:42:00,
2013-04-20 14:52:00,71.0,37.0,30.24,South,181,0.0,2.0,29,0.00,,,0.00,,2013-04-20 19:52:00,
2013-04-20 15:02:00,71.0,32.0,30.24,ENE,77,0.0,4.0,24,0.00,,,0.00,,2013-04-20 20:02:00,
2013-04-20 15:12:00,71.0,36.0,30.23,SSW,212,1.0,2.0,28,0.00,,,0.00,,2013-04-20 20:12:00,
2013-04-20 15:21:00,71.0,36.0,30.23,SSW,212,1.0,2.0,28,0.00,,,0.00,,2013-04-20 20:21:00,
2013-04-20 15:32:00,71.0,35.0,30.23,SSW,207,1.0,2.0,27,0.00,,,0.00,,2013-04-20 20:32:00,
2013-04-20 15:42:00,71.0,35.0,30.23,SSW,207,1.0,2.0,27,0.00,,,0.00,,2013-04-20 20:42:00,
2013-04-20 15:52:00,70.0,34.0,30.22,NNW,339,2.0,5.0,26,0.00,,,0.00,,2013-04-20 20:52:00,
2013-04-20 16:01:00,72.0,38.0,30.22,ESE,114,0.0,1.0,29,0.00,,,0.00,,2013-04-20 21:01:00,
2013-04-20 16:12:00,72.0,38.0,30.22,ESE,114,0.0,1.0,29,0.00,,,0.00,,2013-04-20 21:12:00,
2013-04-20 16:21:00,72.0,38.0,30.22,WSW,256,0.0,3.0,29,0.00,,,0.00,,2013-04-20 21:21:00,
2013-04-20 16:33:00,73.0,36.0,30.21,West,270,1.0,2.0,26,0.00,,,0.00,,2013-04-20 21:33:00,
2013-04-20 16:43:00,73.0,36.0,30.21,West,270,1.0,2.0,26,0.00,,,0.00,,2013-04-20 21:43:00,
2013-04-20 16:53:00,71.0,36.0,30.21,SSE,165,1.0,2.0,28,0.00,,,0.00,,2013-04-20 21:53:00,
2013-04-20 17:02:00,72.0,37.0,30.21,SW,236,0.0,2.0,28,0.00,,,0.00,,2013-04-20 22:02:00,
2013-04-20 17:12:00,72.0,37.0,30.21,SW,236,0.0,2.0,28,0.00,,,0.00,,2013-04-20 22:12:00,
2013-04-20 17:22:00,71.0,37.0,30.21,SW,217,0.0,3.0,29,0.00,,,0.00,,2013-04-20 22:22:00,
2013-04-20 17:32:00,70.0,37.0,30.20,East,98,2.0,5.0,30,0.00,,,0.00,,2013-04-20 22:32:00,
2013-04-20 17:42:00,70.0,37.0,30.20,East,98,2.0,5.0,30,0.00,,,0.00,,2013-04-20 22:42:00,
2013-04-20 17:53:00,70.0,37.0,30.20,ENE,77,0.0,3.0,30,0.00,,,0.00,,2013-04-20 22:53:00,
2013-04-20 18:02:00,71.0,36.0,30.20,ENE,72,1.0,4.0,28,0.00,,,0.00,,2013-04-20 23:02:00,
2013-04-20 18:11:00,71.0,36.0,30.20,ENE,72,1.0,4.0,28,0.00,,,0.00,,2013-04-20 23:11:00,
2013-04-20 18:22:00,69.0,36.0,30.19,ESE,107,1.0,2.0,30,0.00,,,0.00,,2013-04-20 23:22:00,
2013-04-20 18:32:00,66.0,35.0,30.19,ENE,74,1.0,5.0,32,0.00,,,0.00,,2013-04-20 23:32:00,
2013-04-20 18:42:00,66.0,35.0,30.19,ENE,74,1.0,5.0,32,0.00,,,0.00,,2013-04-20 23:42:00,
2013-04-20 18:53:00,65.0,36.0,30.20,East,88,0.0,3.0,34,0.00,,,0.00,,2013-04-20 23:53:00,
2013-04-20 19:01:00,65.0,38.0,30.20,ENE,75,1.0,3.0,37,0.00,,,0.00,,2013-04-21 00:01:00,
2013-04-20 19:11:00,65.0,38.0,30.20,ENE,75,1.0,3.0,37,0.00,,,0.00,,2013-04-21 00:11:00,
2013-04-20 19:21:00,64.0,37.0,30.20,East,81,1.0,3.0,37,0.00,,,0.00,,2013-04-21 00:21:00,
2013-04-20 19:32:00,63.0,38.0,30.21,East,96,1.0,3.0,39,0.00,,,0.00,,2013-04-21 00:32:00,
2013-04-20 19:42:00,63.0,38.0,30.21,East,96,1.0,3.0,39,0.00,,,0.00,,2013-04-21 00:42:00,
2013-04-20 19:52:00,62.0,38.0,30.21,East,88,0.0,3.0,41,0.00,,,0.00,,2013-04-21 00:52:00,
2013-04-20 20:01:00,61.0,40.0,30.22,East,83,0.0,1.0,45,0.00,,,0.00,,2013-04-21 01:01:00,
2013-04-20 20:12:00,61.0,40.0,30.22,East,83,0.0,1.0,45,0.00,,,0.00,,2013-04-21 01:12:00,
2013-04-20 20:21:00,60.0,40.0,30.23,ENE,77,0.0,1.0,47,0.00,,,0.00,,2013-04-21 01:21:00,
2013-04-20 20:31:00,59.0,39.0,30.23,East,82,0.0,1.0,48,0.00,,,0.00,,2013-04-21 01:31:00,
2013-04-20 20:42:00,59.0,39.0,30.23,East,82,0.0,1.0,48,0.00,,,0.00,,2013-04-21 01:42:00,
2013-04-20 20:52:00,58.0,39.0,30.23,East,90,0.0,1.0,50,0.00,,,0.00,,2013-04-21 01:52:00,
2013-04-20 21:01:00,57.0,40.0,30.24,East,91,0.0,1.0,53,0.00,,,0.00,,2013-04-21 02:01:00,
2013-04-20 21:11:00,57.0,40.0,30.24,East,91,0.0,1.0,53,0.00,,,0.00,,2013-04-21 02:11:00,
2013-04-20 21:21:00,56.0,40.0,30.25,ENE,74,1.0,2.0,54,0.00,,,0.00,,2013-04-21 02:21:00,
2013-04-20 21:32:00,56.0,40.0,30.26,East,83,1.0,2.0,54,0.00,,,0.00,,2013-04-21 02:32:00,
2013-04-20 21:42:00,56.0,40.0,30.26,East,83,1.0,2.0,54,0.00,,,0.00,,2013-04-21 02:42:00,
2013-04-20 21:52:00,56.0,40.0,30.26,ENE,75,0.0,1.0,54,0.00,,,0.00,,2013-04-21 02:52:00,
2013-04-20 22:01:00,55.0,40.0,30.27,ENE,75,0.0,0.0,56,0.00,,,0.00,,2013-04-21 03:01:00,
2013-04-20 22:11:00,55.0,40.0,30.27,ENE,75,0.0,0.0,56,0.00,,,0.00,,2013-04-21 03:11:00,
2013-04-20 22:21:00,54.0,40.0,30.27,ENE,75,0.0,0.0,59,0.00,,,0.00,,2013-04-21 03:21:00,
2013-04-20 22:33:00,53.0,40.0,30.27,ENE,75,0.0,0.0,61,0.00,,,0.00,,2013-04-21 03:33:00,
2013-04-20 22:42:00,53.0,40.0,30.27,ENE,75,0.0,0.0,61,0.00,,,0.00,,2013-04-21 03:42:00,
2013-04-20 22:52:00,52.0,40.0,30.27,ENE,74,0.0,0.0,63,0.00,,,0.00,,2013-04-21 03:52:00,
2013-04-20 23:02:00,52.0,40.0,30.27,ENE,74,0.0,0.0,64,0.00,,,0.00,,2013-04-21 04:02:00,
2013-04-20 23:12:00,52.0,40.0,30.27,ENE,74,0.0,0.0,64,0.00,,,0.00,,2013-04-21 04:12:00,
2013-04-20 23:23:00,52.0,41.0,30.28,ENE,74,0.0,0.0,65,0.00,,,0.00,,2013-04-21 04:23:00,
2013-04-20 23:33:00,51.0,41.0,30.28,ENE,74,0.0,0.0,68,0.00,,,0.00,,2013-04-21 04:33:00,
2013-04-20 23:42:00,51.0,41.0,30.28,ENE,74,0.0,0.0,68,0.00,,,0.00,,2013-04-21 04:42:00,
2013-04-20 23:53:00,51.0,40.0,30.28,ENE,74,0.0,1.0,67,0.00,,,0.00,,2013-04-21 04:53:00,